User: anonymous   Login
Location: Caltech
(34.1382°N, 118.1253°W)
Time: 23:09:26
(UTC-07:00)
Language:

Meteor 1-11 Rocket - Orbit

View from above orbital plane
View from above orbital plane
View from above satellite
View from above satellite

Ground track
Ground track

The orbit data is extracted from the following two-line orbital elements,

1 05918U 72022B   16237.14190435  .00000079  00000-0  39706-4 0  9997
2 05918  81.2341 253.2174 0059405  81.5997 279.1899 14.05806267276267
Epoch (UTC): 24 August 2016 03:24:20
Eccentricity: 0.0059405
inclination: 81.2341°
perigee height: 830 km
apogee height: 917 km
right ascension of ascending node: 253.2174°
argument of perigee: 81.5997°
revolutions per day: 14.05806267
mean anomaly at epoch: 279.1899°
orbit number at epoch: 27626

The dashed part of the orbit path shows where the satellite is in the earth's shadow,  

DLR